Location: Newark
(31.0436°N, 112.2008°E)
Time: 15:16:44
(UTC+00:00)

N. Korean satellite - Pass Details

Date: 02 February 2020
Orbit: 456 x 506 km, 97.2° (Epoch: 17 February)

Event Time Altitude Azimuth Distance (km) Brightness Sun altitude
Rises 22:45:49 0° 357° (N) 2,575 10.1 -8.4°
Reaches altitude 10° 22:48:04 10° 346° (NNW) 1,697 9.0 -7.9°
Maximum altitude 22:51:13 28° 286° (WNW) 965 7.5 -7.2°
Drops below altitude 10° 22:54:24 10° 226° (SW) 1,704 9.0 -6.6°
Sets 22:56:40 0° 215° (SW) 2,588 10.1 -6.1°
